Flag for U.S.A. Weather past 2 weeks in Cape Coral, Florida, U.S.A.

81 °F


Feels Like: 85 °F
Forecast: 72 / 85 °F
Wind: 6 mph from East

Location: Page Field

Current Time: Oct 7, 2015 at 12:17:00 PM

Latest Report: Oct 7, 2015 at 11:53 AM

Visibility: 10 mi

Pressure: 29.98 "Hg

Humidity: 74%

Dew point: 72 °F

Location of Cape CoralLocation

Historic Weather in Cape Coral — Graph


Cape Coral temperature yesterday

Maximum temperature yesterday: 85 °F (at 3:53 PM)
Minimum temperature yesterday: 72 °F (at 2:53 AM)
Average temperature yesterday: 78 °F

Past Weeks' High & Low Weather Summary

High90 °F (Sep 22, 12:53 PM)100% (Sep 26, 7:53 AM)29.99 "Hg (Sep 26, 7:53 AM)
Low70 °F (Oct 4, 4:53 AM)50% (Sep 23, 4:53 PM)29.54 "Hg (Oct 2, 3:53 PM)
Average79 °F83%29.82 "Hg
* Reported Sep 22 10:53 AM — Oct 7 10:53 AM, Cape Coral, Weather by CustomWeather, © 2015

Note: Actual official high and low records may vary slightly from our data, if they occured in-between our weather recording intervals... More about our weather records


Cape Coral weather history for previous 24 hours

Time TempWeatherWind HumidityBarometerVisibility
10:53 AM
Wed, Oct 7
80 °FPassing clouds.10 mph74%29.99 "Hg10 mi
9:53 AM75 °FMostly cloudy.7 mph88%29.99 "Hg10 mi
8:53 AM73 °FPartly sunny.7 mph90%29.97 "Hg10 mi
7:53 AM72 °FPartly cloudy.5 mph91%29.95 "Hg10 mi
6:53 AM71 °FPassing clouds.6 mph93%29.93 "Hg10 mi
5:53 AM72 °FOvercast.9 mph93%29.91 "Hg10 mi
4:53 AM72 °FClear.5 mph93%29.90 "Hg10 mi
3:53 AM73 °FClear.5 mph94%29.90 "Hg10 mi
2:53 AM73 °FPassing clouds.5 mph94%29.90 "Hg10 mi
1:53 AM74 °FPassing clouds.7 mph94%29.92 "Hg10 mi
12:53 AM74 °FPassing clouds.6 mph91%29.93 "Hg10 mi
11:53 PM
Tue, Oct 6
75 °FClear.No wind90%29.93 "Hg10 mi
10:53 PM75 °FClear.No wind90%29.92 "Hg10 mi
9:53 PM77 °FClear.No wind82%29.90 "Hg10 mi
8:53 PM78 °FPassing clouds.No wind79%29.90 "Hg10 mi
7:53 PM79 °FScattered clouds.6 mph77%29.88 "Hg10 mi
6:53 PM81 °FPassing clouds.6 mph65%29.88 "Hg10 mi
5:53 PM82 °FScattered clouds.8 mph67%29.86 "Hg10 mi
4:53 PM83 °FScattered clouds.8 mph65%29.86 "Hg10 mi
3:53 PM85 °FSunny.10 mph57%29.85 "Hg10 mi
2:53 PM83 °FPartly sunny.5 mph63%29.86 "Hg10 mi
1:53 PM83 °FBroken clouds.6 mph61%29.88 "Hg10 mi
12:53 PM81 °FBroken clouds.No wind67%29.90 "Hg10 mi
Weather by CustomWeather, © 2015

See weather overviewHow to use our weather pages